Time,TemperatureF,DewpointF,PressureIn,WindDirection,WindDirectionDegrees,WindSpeedMPH,WindSpeedGustMPH,Humidity,HourlyPrecipIn,Conditions,Clouds,dailyrainin,SoftwareType,DateUTC
2014-07-25 00:01:00,69.6,66.6,30.06,SE,135,0.0,0.0,90,0.00,,,0.00,VWS V15.00,2014-07-25 05:01:00,
2014-07-25 00:06:00,69.4,66.4,30.06,ESE,112,0.0,0.0,90,0.00,,,0.00,VWS V15.00,2014-07-25 05:06:00,
2014-07-25 00:11:00,69.6,66.9,30.09,East,90,0.0,0.0,91,0.00,,,0.00,VWS V15.00,2014-07-25 05:11:00,
2014-07-25 00:16:00,69.8,66.7,30.09,SE,135,0.0,0.0,90,0.00,,,0.00,VWS V15.00,2014-07-25 05:16:00,
2014-07-25 00:21:00,69.4,66.4,30.09,SE,135,0.0,0.0,90,0.00,,,0.00,VWS V15.00,2014-07-25 05:21:00,
2014-07-25 00:26:00,69.1,66.0,30.09,South,180,0.0,0.0,90,0.00,,,0.00,VWS V15.00,2014-07-25 05:26:00,
2014-07-25 00:31:00,68.9,65.8,30.09,South,180,0.0,0.0,90,0.00,,,0.00,VWS V15.00,2014-07-25 05:31:00,
2014-07-25 00:36:00,68.7,65.7,30.09,South,180,0.0,0.0,90,0.00,,,0.00,VWS V15.00,2014-07-25 05:36:00,
2014-07-25 00:41:00,68.5,65.5,30.09,SE,135,0.0,0.0,90,0.00,,,0.00,VWS V15.00,2014-07-25 05:41:00,
2014-07-25 00:46:00,68.5,65.8,30.09,SE,135,0.0,0.0,91,0.00,,,0.00,VWS V15.00,2014-07-25 05:46:00,
2014-07-25 00:51:00,68.5,65.8,30.09,SE,135,0.0,0.0,91,0.00,,,0.00,VWS V15.00,2014-07-25 05:51:00,
2014-07-25 00:56:00,68.2,65.1,30.06,SE,135,0.0,0.0,90,0.00,,,0.00,VWS V15.00,2014-07-25 05:56:00,
2014-07-25 01:01:00,68.5,65.5,30.06,SSE,158,0.0,0.0,90,0.00,,,0.00,VWS V15.00,2014-07-25 06:01:00,
2014-07-25 01:06:00,68.7,65.7,30.06,SE,135,0.0,0.0,90,0.00,,,0.00,VWS V15.00,2014-07-25 06:06:00,
2014-07-25 01:11:00,68.9,65.8,30.06,SE,135,0.0,0.0,90,0.00,,,0.00,VWS V15.00,2014-07-25 06:11:00,
2014-07-25 01:16:00,68.7,65.7,30.06,SE,135,0.0,0.0,90,0.00,,,0.00,VWS V15.00,2014-07-25 06:16:00,
2014-07-25 01:21:00,69.1,66.0,30.06,SE,135,0.0,0.0,90,0.00,,,0.00,VWS V15.00,2014-07-25 06:21:00,
2014-07-25 01:26:00,69.4,66.4,30.06,ESE,112,0.0,0.0,90,0.00,,,0.00,VWS V15.00,2014-07-25 06:26:00,
2014-07-25 01:31:00,69.8,66.4,30.06,ESE,112,0.0,0.0,89,0.00,,,0.00,VWS V15.00,2014-07-25 06:31:00,
2014-07-25 01:36:00,69.8,66.4,30.06,ESE,112,0.0,0.0,89,0.00,,,0.00,VWS V15.00,2014-07-25 06:36:00,
2014-07-25 01:41:00,70.2,66.8,30.06,SE,135,0.0,0.0,89,0.00,,,0.00,VWS V15.00,2014-07-25 06:41:00,
2014-07-25 01:46:00,70.3,66.9,30.06,SE,135,0.0,0.0,89,0.00,,,0.00,VWS V15.00,2014-07-25 06:46:00,
2014-07-25 01:51:00,70.5,66.8,30.06,SSE,158,0.0,0.0,88,0.00,,,0.00,VWS V15.00,2014-07-25 06:51:00,
2014-07-25 01:56:00,70.5,66.8,30.06,SSE,158,0.0,0.0,88,0.00,,,0.00,VWS V15.00,2014-07-25 06:56:00,
2014-07-25 02:01:00,70.2,66.4,30.06,South,180,0.0,0.0,88,0.00,,,0.00,VWS V15.00,2014-07-25 07:01:00,
2014-07-25 02:06:00,69.8,66.1,30.06,West,270,0.0,0.0,88,0.00,,,0.00,VWS V15.00,2014-07-25 07:06:00,
2014-07-25 02:11:00,69.8,66.1,30.06,West,270,0.0,0.0,88,0.00,,,0.00,VWS V15.00,2014-07-25 07:11:00,
2014-07-25 02:16:00,70.0,66.3,30.06,South,180,0.0,0.0,88,0.00,,,0.00,VWS V15.00,2014-07-25 07:16:00,
2014-07-25 02:21:00,70.2,66.8,30.06,SSW,202,0.0,0.0,89,0.00,,,0.00,VWS V15.00,2014-07-25 07:21:00,
2014-07-25 02:26:00,70.5,67.1,30.06,South,180,0.0,0.0,89,0.00,,,0.00,VWS V15.00,2014-07-25 07:26:00,
2014-07-25 02:31:00,70.7,67.3,30.06,SW,225,0.0,0.0,89,0.00,,,0.00,VWS V15.00,2014-07-25 07:31:00,
2014-07-25 02:36:00,70.7,67.3,30.06,South,180,0.0,0.0,89,0.00,,,0.00,VWS V15.00,2014-07-25 07:36:00,
2014-07-25 02:41:00,71.1,67.7,30.03,SW,225,0.0,0.0,89,0.00,,,0.00,VWS V15.00,2014-07-25 07:41:00,
2014-07-25 02:46:00,70.9,67.5,30.03,SSE,158,0.0,0.0,89,0.00,,,0.00,VWS V15.00,2014-07-25 07:46:00,
2014-07-25 02:51:00,70.7,67.3,30.03,SSW,202,0.0,0.0,89,0.00,,,0.00,VWS V15.00,2014-07-25 07:51:00,
2014-07-25 02:56:00,70.9,67.5,30.03,SSW,202,0.0,4.0,89,0.00,,,0.00,VWS V15.00,2014-07-25 07:56:00,
2014-07-25 03:01:00,71.1,67.7,30.03,South,180,0.0,0.0,89,0.00,,,0.00,VWS V15.00,2014-07-25 08:01:00,
2014-07-25 03:06:00,71.2,67.8,30.03,South,180,0.0,0.0,89,0.00,,,0.00,VWS V15.00,2014-07-25 08:06:00,
2014-07-25 03:11:00,71.6,67.9,30.03,SE,135,2.2,3.6,88,0.00,,,0.00,VWS V15.00,2014-07-25 08:11:00,
2014-07-25 03:16:00,71.6,67.9,30.03,SE,135,3.1,3.1,88,0.00,,,0.00,VWS V15.00,2014-07-25 08:16:00,
2014-07-25 03:21:00,71.8,68.0,30.03,SSE,158,4.5,4.5,88,0.00,,,0.00,VWS V15.00,2014-07-25 08:21:00,
2014-07-25 03:26:00,72.0,68.2,30.03,SE,135,0.0,0.0,88,0.00,,,0.00,VWS V15.00,2014-07-25 08:26:00,
2014-07-25 03:31:00,72.1,68.7,30.06,SSE,158,2.7,5.4,89,0.00,,,0.00,VWS V15.00,2014-07-25 08:31:00,
2014-07-25 03:36:00,71.8,68.4,30.06,SSE,158,4.9,4.9,89,0.00,,,0.00,VWS V15.00,2014-07-25 08:36:00,
2014-07-25 03:41:00,71.4,68.0,30.06,SE,135,0.0,0.0,89,0.00,,,0.00,VWS V15.00,2014-07-25 08:41:00,
2014-07-25 03:46:00,71.2,67.8,30.06,South,180,2.7,3.6,89,0.00,,,0.00,VWS V15.00,2014-07-25 08:46:00,
2014-07-25 03:51:00,71.1,68.0,30.06,WSW,248,0.0,0.0,90,0.00,,,0.00,VWS V15.00,2014-07-25 08:51:00,
2014-07-25 03:56:00,70.9,67.8,30.03,South,180,0.0,0.0,90,0.00,,,0.00,VWS V15.00,2014-07-25 08:56:00,
2014-07-25 04:01:00,70.9,67.5,30.03,SSE,158,0.0,0.0,89,0.00,,,0.00,VWS V15.00,2014-07-25 09:01:00,
2014-07-25 04:06:00,71.1,68.0,30.03,SE,135,3.1,4.0,90,0.00,,,0.00,VWS V15.00,2014-07-25 09:06:00,
2014-07-25 04:11:00,70.9,67.8,30.03,SE,135,0.0,0.0,90,0.00,,,0.00,VWS V15.00,2014-07-25 09:11:00,
2014-07-25 04:16:00,70.7,67.6,30.06,SW,225,0.0,0.0,90,0.00,,,0.00,VWS V15.00,2014-07-25 09:16:00,
2014-07-25 04:21:00,70.7,67.3,30.06,South,180,0.0,0.0,89,0.00,,,0.00,VWS V15.00,2014-07-25 09:21:00,
2014-07-25 04:26:00,70.5,67.1,30.03,SW,225,0.0,0.0,89,0.00,,,0.00,VWS V15.00,2014-07-25 09:26:00,
2014-07-25 04:31:00,70.5,67.1,30.03,SSE,158,0.0,0.0,89,0.00,,,0.00,VWS V15.00,2014-07-25 09:31:00,
2014-07-25 04:36:00,70.7,67.6,30.03,West,270,0.0,2.2,90,0.00,,,0.00,VWS V15.00,2014-07-25 09:36:00,
2014-07-25 04:41:00,70.7,67.6,30.03,WSW,248,0.0,0.0,90,0.00,,,0.00,VWS V15.00,2014-07-25 09:41:00,
2014-07-25 04:46:00,70.7,67.3,30.03,SW,225,0.0,0.0,89,0.00,,,0.00,VWS V15.00,2014-07-25 09:46:00,
2014-07-25 04:50:00,70.9,67.5,30.03,SW,225,0.0,0.0,89,0.00,,,0.00,VWS V15.00,2014-07-25 09:50:00,
2014-07-25 04:55:00,71.4,68.0,30.03,SSE,158,0.0,4.0,89,0.00,,,0.00,VWS V15.00,2014-07-25 09:55:00,
2014-07-25 05:00:00,71.4,68.0,30.03,SW,225,2.2,3.1,89,0.00,,,0.00,VWS V15.00,2014-07-25 10:00:00,
2014-07-25 05:05:00,71.4,68.0,30.03,SW,225,0.0,3.1,89,0.00,,,0.00,VWS V15.00,2014-07-25 10:05:00,
2014-07-25 05:10:00,71.4,68.0,30.03,SW,225,2.7,2.7,89,0.00,,,0.00,VWS V15.00,2014-07-25 10:10:00,
2014-07-25 05:16:00,71.4,68.0,30.03,SW,225,0.0,0.0,89,0.00,,,0.00,VWS V15.00,2014-07-25 10:16:00,
2014-07-25 05:21:00,71.4,68.0,30.03,SSE,158,2.2,2.2,89,0.00,,,0.00,VWS V15.00,2014-07-25 10:21:00,
2014-07-25 05:26:00,71.4,68.0,30.03,SW,225,2.7,2.7,89,0.00,,,0.00,VWS V15.00,2014-07-25 10:26:00,
2014-07-25 05:31:00,71.4,68.0,30.03,SW,225,5.8,5.8,89,0.00,,,0.00,VWS V15.00,2014-07-25 10:31:00,
2014-07-25 05:36:00,71.4,68.0,30.03,SSE,158,2.7,4.9,89,0.00,,,0.00,VWS V15.00,2014-07-25 10:36:00,
2014-07-25 05:41:00,71.6,68.2,30.03,WSW,248,2.7,5.4,89,0.00,,,0.00,VWS V15.00,2014-07-25 10:41:00,
2014-07-25 05:46:00,71.6,68.2,30.03,West,270,2.2,4.9,89,0.00,,,0.00,VWS V15.00,2014-07-25 10:46:00,
2014-07-25 05:51:00,71.6,68.2,30.03,South,180,3.1,3.1,89,0.00,,,0.00,VWS V15.00,2014-07-25 10:51:00,
2014-07-25 05:55:00,71.8,68.4,30.03,South,180,0.0,0.0,89,0.00,,,0.00,VWS V15.00,2014-07-25 10:55:00,
2014-07-25 06:00:00,71.8,68.4,30.03,South,180,4.0,4.0,89,0.00,,,0.00,VWS V15.00,2014-07-25 11:00:00,
2014-07-25 06:05:00,71.8,68.4,30.03,WSW,248,3.6,4.0,89,0.00,,,0.00,VWS V15.00,2014-07-25 11:05:00,
2014-07-25 06:10:00,72.0,68.6,30.03,South,180,0.0,2.2,89,0.00,,,0.00,VWS V15.00,2014-07-25 11:10:00,
2014-07-25 06:15:00,72.1,68.7,30.03,SE,135,4.9,4.9,89,0.00,,,0.00,VWS V15.00,2014-07-25 11:15:00,
2014-07-25 06:20:00,72.1,68.7,30.03,South,180,0.0,3.1,89,0.00,,,0.00,VWS V15.00,2014-07-25 11:20:00,
2014-07-25 06:25:00,72.3,68.9,30.03,SSE,158,4.0,4.0,89,0.00,,,0.00,VWS V15.00,2014-07-25 11:25:00,
2014-07-25 06:30:00,72.5,68.8,30.03,SE,135,0.0,0.0,88,0.00,,,0.00,VWS V15.00,2014-07-25 11:30:00,
2014-07-25 06:35:00,72.5,68.8,30.03,SW,225,0.0,0.0,88,0.00,,,0.00,VWS V15.00,2014-07-25 11:35:00,
2014-07-25 06:40:00,72.5,68.8,30.03,SE,135,3.6,3.6,88,0.00,,,0.00,VWS V15.00,2014-07-25 11:40:00,
2014-07-25 06:45:00,72.7,68.9,30.03,South,180,0.0,0.0,88,0.00,,,0.00,VWS V15.00,2014-07-25 11:45:00,
2014-07-25 06:50:00,73.0,69.3,30.03,SE,135,0.0,3.1,88,0.00,,,0.00,VWS V15.00,2014-07-25 11:50:00,
2014-07-25 06:55:00,73.0,69.3,30.03,South,180,2.7,3.1,88,0.00,,,0.00,VWS V15.00,2014-07-25 11:55:00,
2014-07-25 07:00:00,73.0,69.3,30.03,South,180,0.0,3.6,88,0.00,,,0.00,VWS V15.00,2014-07-25 12:00:00,
2014-07-25 07:05:00,73.8,70.0,30.03,SE,135,0.0,0.0,88,0.00,,,0.00,VWS V15.00,2014-07-25 12:05:00,
2014-07-25 07:10:00,73.9,70.2,30.03,SSE,158,3.1,4.9,88,0.00,,,0.00,VWS V15.00,2014-07-25 12:10:00,
2014-07-25 07:16:00,74.3,70.5,30.06,South,180,0.0,4.0,88,0.00,,,0.00,VWS V15.00,2014-07-25 12:16:00,
2014-07-25 07:21:00,74.5,70.7,30.06,South,180,0.0,3.6,88,0.00,,,0.00,VWS V15.00,2014-07-25 12:21:00,
2014-07-25 07:26:00,74.5,70.7,30.06,SW,225,3.6,3.6,88,0.00,,,0.00,VWS V15.00,2014-07-25 12:26:00,
2014-07-25 07:31:00,74.5,70.7,30.06,South,180,3.6,6.3,88,0.00,,,0.00,VWS V15.00,2014-07-25 12:31:00,
2014-07-25 07:36:00,74.5,70.7,30.06,South,180,4.5,4.5,88,0.00,,,0.00,VWS V15.00,2014-07-25 12:36:00,
2014-07-25 07:41:00,74.5,70.7,30.06,South,180,3.6,7.6,88,0.00,,,0.00,VWS V15.00,2014-07-25 12:41:00,
2014-07-25 07:46:00,74.7,70.9,30.06,WSW,248,0.0,5.4,88,0.00,,,0.00,VWS V15.00,2014-07-25 12:46:00,
2014-07-25 07:51:00,74.7,70.9,30.06,West,270,2.2,4.9,88,0.00,,,0.00,VWS V15.00,2014-07-25 12:51:00,
2014-07-25 07:56:00,74.7,70.9,30.06,West,270,4.0,5.8,88,0.00,,,0.00,VWS V15.00,2014-07-25 12:56:00,
2014-07-25 08:01:00,74.7,71.2,30.06,SW,225,7.2,7.2,89,0.00,,,0.00,VWS V15.00,2014-07-25 13:01:00,
2014-07-25 08:06:00,74.5,71.0,30.06,WSW,248,5.8,5.8,89,0.00,,,0.00,VWS V15.00,2014-07-25 13:06:00,
2014-07-25 08:11:00,74.3,70.8,30.09,SW,225,3.6,8.1,89,0.00,,,0.00,VWS V15.00,2014-07-25 13:11:00,
2014-07-25 08:16:00,74.1,70.7,30.09,SW,225,6.3,8.7,89,0.00,,,0.00,VWS V15.00,2014-07-25 13:16:00,
2014-07-25 08:21:00,74.1,70.7,30.09,South,180,8.1,8.1,89,0.00,,,0.00,VWS V15.00,2014-07-25 13:21:00,
2014-07-25 08:25:00,74.1,70.7,30.09,NE,45,2.2,4.9,89,0.00,,,0.00,VWS V15.00,2014-07-25 13:25:00,
2014-07-25 08:30:00,73.9,70.8,30.09,South,180,8.1,8.1,90,0.00,,,0.00,VWS V15.00,2014-07-25 13:30:00,
2014-07-25 08:35:00,73.8,70.7,30.09,SW,225,3.1,7.2,90,0.00,,,0.00,VWS V15.00,2014-07-25 13:35:00,
2014-07-25 08:40:00,73.9,70.8,30.06,South,180,0.0,3.6,90,0.00,,,0.00,VWS V15.00,2014-07-25 13:40:00,
2014-07-25 08:45:00,73.6,70.8,30.06,SE,135,3.1,8.7,91,0.00,,,0.00,VWS V15.00,2014-07-25 13:45:00,
2014-07-25 08:50:00,73.8,71.0,30.06,SW,225,4.0,7.6,91,0.00,,,0.00,VWS V15.00,2014-07-25 13:50:00,
2014-07-25 08:55:00,73.8,71.0,30.06,SW,225,4.0,4.9,91,0.00,,,0.00,VWS V15.00,2014-07-25 13:55:00,
2014-07-25 09:00:00,74.1,71.3,30.06,West,270,5.4,5.4,91,0.00,,,0.00,VWS V15.00,2014-07-25 14:00:00,
2014-07-25 09:05:00,73.9,71.2,30.06,East,90,3.6,3.6,91,0.00,,,0.00,VWS V15.00,2014-07-25 14:05:00,
2014-07-25 09:10:00,74.3,71.5,30.06,WSW,248,8.3,10.1,91,0.00,,,0.00,VWS V15.00,2014-07-25 14:10:00,
2014-07-25 09:15:00,74.3,71.2,30.06,SW,225,7.6,8.3,90,0.00,,,0.00,VWS V15.00,2014-07-25 14:15:00,
2014-07-25 09:20:00,74.1,70.7,30.06,SW,225,2.7,5.8,89,0.00,,,0.00,VWS V15.00,2014-07-25 14:20:00,
2014-07-25 09:25:00,74.5,70.7,30.06,West,270,4.0,9.6,88,0.00,,,0.00,VWS V15.00,2014-07-25 14:25:00,
2014-07-25 09:30:00,75.4,71.2,30.06,West,270,0.0,6.3,87,0.00,,,0.00,VWS V15.00,2014-07-25 14:30:00,
2014-07-25 09:35:00,75.4,70.6,30.06,WNW,292,6.3,7.6,85,0.00,,,0.00,VWS V15.00,2014-07-25 14:35:00,
2014-07-25 09:40:00,75.6,70.0,30.09,South,180,3.1,6.3,83,0.00,,,0.00,VWS V15.00,2014-07-25 14:40:00,
2014-07-25 09:45:00,75.7,69.9,30.09,South,180,8.1,8.1,82,0.00,,,0.00,VWS V15.00,2014-07-25 14:45:00,
2014-07-25 09:50:00,75.7,69.5,30.09,West,270,5.8,12.3,81,0.00,,,0.00,VWS V15.00,2014-07-25 14:50:00,
2014-07-25 09:55:00,75.7,69.1,30.06,NE,45,7.6,10.1,80,0.00,,,0.00,VWS V15.00,2014-07-25 14:55:00,
2014-07-25 10:00:00,75.7,69.1,30.06,South,180,2.7,3.1,80,0.00,,,0.00,VWS V15.00,2014-07-25 15:00:00,
2014-07-25 10:05:00,76.1,69.1,30.06,West,270,5.8,5.8,79,0.00,,,0.00,VWS V15.00,2014-07-25 15:05:00,
2014-07-25 10:10:00,77.2,69.4,30.06,WSW,248,4.0,4.0,77,0.00,,,0.00,VWS V15.00,2014-07-25 15:10:00,
2014-07-25 10:15:00,77.2,68.3,30.06,SW,225,7.2,7.6,74,0.00,,,0.00,VWS V15.00,2014-07-25 15:15:00,
2014-07-25 10:20:00,77.4,68.4,30.06,West,270,3.1,5.4,74,0.00,,,0.00,VWS V15.00,2014-07-25 15:20:00,
2014-07-25 10:25:00,77.2,67.9,30.09,SW,225,4.0,11.0,73,0.00,,,0.00,VWS V15.00,2014-07-25 15:25:00,
2014-07-25 10:30:00,77.4,68.0,30.09,West,270,5.4,8.1,73,0.00,,,0.00,VWS V15.00,2014-07-25 15:30:00,
2014-07-25 10:35:00,78.3,68.9,30.09,SSE,158,3.1,4.0,73,0.00,,,0.00,VWS V15.00,2014-07-25 15:35:00,
2014-07-25 10:40:00,80.1,69.8,30.06,West,270,5.4,8.1,71,0.00,,,0.00,VWS V15.00,2014-07-25 15:40:00,
2014-07-25 10:45:00,80.1,68.1,30.06,West,270,5.8,5.8,67,0.00,,,0.00,VWS V15.00,2014-07-25 15:45:00,
2014-07-25 10:50:00,80.4,68.9,30.06,West,270,5.8,5.8,68,0.00,,,0.00,VWS V15.00,2014-07-25 15:50:00,
2014-07-25 10:55:00,80.6,68.2,30.06,West,270,4.0,9.2,66,0.00,,,0.00,VWS V15.00,2014-07-25 15:55:00,
2014-07-25 11:00:00,80.6,69.1,30.06,West,270,2.2,3.6,68,0.00,,,0.00,VWS V15.00,2014-07-25 16:00:00,
2014-07-25 11:05:00,80.4,68.5,30.06,SW,225,8.1,8.1,67,0.00,,,0.00,VWS V15.00,2014-07-25 16:05:00,
2014-07-25 11:10:00,81.1,68.7,30.06,WSW,248,7.6,10.5,66,0.00,,,0.00,VWS V15.00,2014-07-25 16:10:00,
2014-07-25 11:15:00,80.6,67.3,30.06,SW,225,7.6,9.6,64,0.00,,,0.00,VWS V15.00,2014-07-25 16:15:00,
2014-07-25 11:20:00,80.2,68.3,30.06,SW,225,5.8,7.6,67,0.00,,,0.00,VWS V15.00,2014-07-25 16:20:00,
2014-07-25 11:25:00,80.8,68.8,30.06,South,180,7.6,7.6,67,0.00,,,0.00,VWS V15.00,2014-07-25 16:25:00,
2014-07-25 11:30:00,81.9,69.4,30.06,West,270,4.5,8.3,66,0.00,,,0.00,VWS V15.00,2014-07-25 16:30:00,
2014-07-25 11:35:00,81.9,68.9,30.06,SW,225,10.1,10.1,65,0.00,,,0.00,VWS V15.00,2014-07-25 16:35:00,
2014-07-25 11:40:00,82.2,68.8,30.06,South,180,7.2,7.2,64,0.00,,,0.00,VWS V15.00,2014-07-25 16:40:00,
2014-07-25 11:45:00,82.4,68.6,30.06,SW,225,9.6,9.6,63,0.00,,,0.00,VWS V15.00,2014-07-25 16:45:00,
2014-07-25 11:50:00,82.9,69.1,30.06,North,0,2.7,6.3,63,0.00,,,0.00,VWS V15.00,2014-07-25 16:50:00,
2014-07-25 11:55:00,83.3,69.9,30.06,SW,225,0.0,7.2,64,0.00,,,0.00,VWS V15.00,2014-07-25 16:55:00,
2014-07-25 12:00:00,83.1,69.2,30.06,West,270,11.0,11.0,63,0.00,,,0.00,VWS V15.00,2014-07-25 17:00:00,
2014-07-25 12:05:00,83.1,69.2,30.06,SW,225,4.0,4.9,63,0.00,,,0.00,VWS V15.00,2014-07-25 17:05:00,
2014-07-25 12:10:00,84.6,70.6,30.06,West,270,3.6,3.6,63,0.00,,,0.00,VWS V15.00,2014-07-25 17:10:00,
2014-07-25 12:15:00,85.8,70.3,30.06,SW,225,8.7,8.7,60,0.00,,,0.00,VWS V15.00,2014-07-25 17:15:00,
2014-07-25 12:20:00,85.1,70.2,30.06,West,270,0.0,0.0,61,0.00,,,0.00,VWS V15.00,2014-07-25 17:20:00,
2014-07-25 12:25:00,85.6,69.2,30.03,West,270,3.6,7.2,58,0.00,,,0.00,VWS V15.00,2014-07-25 17:25:00,
2014-07-25 12:30:00,85.8,70.3,30.03,West,270,13.2,13.2,60,0.00,,,0.00,VWS V15.00,2014-07-25 17:30:00,
2014-07-25 12:35:00,84.9,69.5,30.03,SE,135,3.6,4.9,60,0.00,,,0.00,VWS V15.00,2014-07-25 17:35:00,
2014-07-25 12:40:00,84.9,68.5,30.03,West,270,4.0,7.6,58,0.00,,,0.00,VWS V15.00,2014-07-25 17:40:00,
2014-07-25 12:45:00,85.3,69.3,30.03,West,270,0.0,8.1,59,0.00,,,0.00,VWS V15.00,2014-07-25 17:45:00,
2014-07-25 12:50:00,85.8,68.8,30.03,WSW,248,8.1,8.1,57,0.00,,,0.00,VWS V15.00,2014-07-25 17:50:00,
2014-07-25 12:55:00,85.3,67.8,30.03,SW,225,7.2,10.5,56,0.00,,,0.00,VWS V15.00,2014-07-25 17:55:00,
2014-07-25 13:00:00,85.3,68.3,30.03,West,270,8.3,8.3,57,0.00,,,0.00,VWS V15.00,2014-07-25 18:00:00,
2014-07-25 13:05:00,85.6,69.2,30.03,West,270,4.9,4.9,58,0.00,,,0.00,VWS V15.00,2014-07-25 18:05:00,
2014-07-25 13:10:00,86.5,70.0,30.03,NE,45,2.7,3.6,58,0.00,,,0.00,VWS V15.00,2014-07-25 18:10:00,
2014-07-25 13:15:00,86.2,70.2,30.03,SW,225,8.1,8.1,59,0.00,,,0.00,VWS V15.00,2014-07-25 18:15:00,
2014-07-25 13:20:00,86.9,69.8,30.03,SW,225,2.7,3.6,57,0.00,,,0.00,VWS V15.00,2014-07-25 18:20:00,
2014-07-25 13:25:00,86.2,68.7,30.03,SW,225,3.1,7.2,56,0.00,,,0.00,VWS V15.00,2014-07-25 18:25:00,
2014-07-25 13:30:00,85.8,68.8,30.03,South,180,5.4,8.1,57,0.00,,,0.00,VWS V15.00,2014-07-25 18:30:00,
2014-07-25 13:35:00,86.0,69.0,30.03,SW,225,0.0,11.0,57,0.00,,,0.00,VWS V15.00,2014-07-25 18:35:00,
2014-07-25 13:40:00,87.6,71.0,30.03,West,270,2.7,2.7,58,0.00,,,0.00,VWS V15.00,2014-07-25 18:40:00,
2014-07-25 13:45:00,86.5,69.0,30.03,ESE,112,8.3,10.5,56,0.00,,,0.00,VWS V15.00,2014-07-25 18:45:00,
2014-07-25 13:50:00,86.7,69.7,30.03,SW,225,3.6,7.2,57,0.00,,,0.00,VWS V15.00,2014-07-25 18:50:00,
2014-07-25 13:55:00,86.9,70.4,30.03,SW,225,5.4,6.3,58,0.00,,,0.00,VWS V15.00,2014-07-25 18:55:00,
2014-07-25 14:00:00,87.3,70.2,30.03,South,180,0.0,3.1,57,0.00,,,0.00,VWS V15.00,2014-07-25 19:00:00,
2014-07-25 14:05:00,87.1,69.5,30.03,West,270,8.3,8.3,56,0.00,,,0.00,VWS V15.00,2014-07-25 19:05:00,
2014-07-25 14:10:00,86.9,69.8,30.03,SW,225,8.3,8.3,57,0.00,,,0.00,VWS V15.00,2014-07-25 19:10:00,
2014-07-25 14:15:00,87.4,69.3,30.03,WSW,248,6.3,6.3,55,0.00,,,0.00,VWS V15.00,2014-07-25 19:15:00,
2014-07-25 14:20:00,87.3,68.6,30.03,NW,315,0.0,8.3,54,0.00,,,0.00,VWS V15.00,2014-07-25 19:20:00,
2014-07-25 14:25:00,87.6,69.5,30.03,NW,315,0.0,0.0,55,0.00,,,0.00,VWS V15.00,2014-07-25 19:25:00,
2014-07-25 14:30:00,88.0,69.3,30.03,South,180,4.0,5.8,54,0.00,,,0.00,VWS V15.00,2014-07-25 19:30:00,
2014-07-25 14:35:00,88.3,70.7,30.03,North,0,0.0,0.0,56,0.00,,,0.00,VWS V15.00,2014-07-25 19:35:00,
2014-07-25 14:40:00,88.5,69.2,30.03,NW,315,2.7,4.9,53,0.00,,,0.00,VWS V15.00,2014-07-25 19:40:00,
2014-07-25 14:45:00,88.5,69.8,30.03,NW,315,0.0,4.9,54,0.00,,,0.00,VWS V15.00,2014-07-25 19:45:00,
2014-07-25 14:50:00,89.4,69.5,30.03,West,270,0.0,3.6,52,0.00,,,0.00,VWS V15.00,2014-07-25 19:50:00,
2014-07-25 14:55:00,89.2,69.3,30.03,West,270,0.0,5.8,52,0.00,,,0.00,VWS V15.00,2014-07-25 19:55:00,
2014-07-25 15:00:00,89.2,69.3,30.03,South,180,6.3,6.3,52,0.00,,,0.00,VWS V15.00,2014-07-25 20:00:00,
2014-07-25 15:05:00,89.2,71.0,30.03,West,270,5.4,5.4,55,0.00,,,0.00,VWS V15.00,2014-07-25 20:05:00,
2014-07-25 15:10:00,89.1,69.7,30.03,SW,225,3.6,3.6,53,0.00,,,0.00,VWS V15.00,2014-07-25 20:10:00,
2014-07-25 15:15:00,90.7,71.2,30.03,SE,135,0.0,0.0,53,0.00,,,0.00,VWS V15.00,2014-07-25 20:15:00,
2014-07-25 15:20:00,91.0,71.0,30.03,West,270,2.7,6.3,52,0.00,,,0.00,VWS V15.00,2014-07-25 20:20:00,
2014-07-25 15:25:00,90.9,70.8,30.03,SE,135,5.8,5.8,52,0.00,,,0.00,VWS V15.00,2014-07-25 20:25:00,
2014-07-25 15:30:00,90.0,70.0,30.00,SW,225,3.1,3.1,52,0.00,,,0.00,VWS V15.00,2014-07-25 20:30:00,
2014-07-25 15:35:00,90.0,70.0,30.00,SW,225,3.1,3.1,52,0.00,,,0.00,VWS V15.00,2014-07-25 20:35:00,
2014-07-25 15:40:00,88.7,69.4,30.00,SW,225,8.1,8.1,53,0.00,,,0.00,VWS V15.00,2014-07-25 20:40:00,
2014-07-25 15:45:00,89.1,69.7,30.00,NW,315,0.0,2.7,53,0.00,,,0.00,VWS V15.00,2014-07-25 20:45:00,
2014-07-25 15:50:00,90.1,70.7,30.00,West,270,0.0,0.0,53,0.00,,,0.00,VWS V15.00,2014-07-25 20:50:00,
2014-07-25 15:55:00,89.2,69.9,30.00,West,270,6.3,7.6,53,0.00,,,0.00,VWS V15.00,2014-07-25 20:55:00,
2014-07-25 16:00:00,90.0,70.6,30.00,NE,45,6.3,6.3,53,0.00,,,0.00,VWS V15.00,2014-07-25 21:00:00,
2014-07-25 16:05:00,90.1,70.2,30.00,WSW,248,3.1,3.1,52,0.00,,,0.00,VWS V15.00,2014-07-25 21:05:00,
2014-07-25 16:10:00,90.3,70.9,30.00,NW,315,8.3,9.6,53,0.00,,,0.00,VWS V15.00,2014-07-25 21:10:00,
2014-07-25 16:15:00,89.8,69.8,30.00,SW,225,4.9,7.2,52,0.00,,,0.00,VWS V15.00,2014-07-25 21:15:00,
2014-07-25 16:20:00,89.8,69.8,30.00,West,270,0.0,5.8,52,0.00,,,0.00,VWS V15.00,2014-07-25 21:20:00,
2014-07-25 16:25:00,90.5,70.5,30.00,NW,315,0.0,3.6,52,0.00,,,0.00,VWS V15.00,2014-07-25 21:25:00,
2014-07-25 16:30:00,90.5,69.9,30.00,SW,225,4.0,4.9,51,0.00,,,0.00,VWS V15.00,2014-07-25 21:30:00,
2014-07-25 16:35:00,89.8,69.3,30.00,SSW,202,3.6,5.4,51,0.00,,,0.00,VWS V15.00,2014-07-25 21:35:00,
2014-07-25 16:40:00,90.3,70.3,30.00,West,270,0.0,3.6,52,0.00,,,0.00,VWS V15.00,2014-07-25 21:40:00,
2014-07-25 16:45:00,90.7,70.1,30.00,South,180,3.6,3.6,51,0.00,,,0.00,VWS V15.00,2014-07-25 21:45:00,
2014-07-25 16:50:00,90.5,69.3,30.00,West,270,0.0,0.0,50,0.00,,,0.00,VWS V15.00,2014-07-25 21:50:00,
2014-07-25 16:55:00,90.9,70.2,30.00,SW,225,3.6,3.6,51,0.00,,,0.00,VWS V15.00,2014-07-25 21:55:00,
2014-07-25 17:00:00,90.7,70.7,30.00,NW,315,6.3,6.3,52,0.00,,,0.00,VWS V15.00,2014-07-25 22:00:00,
2014-07-25 17:05:00,90.3,70.3,30.00,SW,225,4.0,4.9,52,0.00,,,0.00,VWS V15.00,2014-07-25 22:05:00,
2014-07-25 17:10:00,89.8,69.3,30.00,West,270,2.2,4.9,51,0.00,,,0.00,VWS V15.00,2014-07-25 22:10:00,
2014-07-25 17:15:00,89.4,69.5,30.00,West,270,5.8,5.8,52,0.00,,,0.00,VWS V15.00,2014-07-25 22:15:00,
2014-07-25 17:20:00,89.1,69.2,30.00,West,270,7.2,7.2,52,0.00,,,0.00,VWS V15.00,2014-07-25 22:20:00,
2014-07-25 17:25:00,89.4,68.9,30.00,SW,225,7.6,7.6,51,0.00,,,0.00,VWS V15.00,2014-07-25 22:25:00,
2014-07-25 17:30:00,90.0,69.4,30.00,South,180,5.8,5.8,51,0.00,,,0.00,VWS V15.00,2014-07-25 22:30:00,
2014-07-25 17:35:00,90.3,70.3,30.00,SSW,202,3.1,3.1,52,0.00,,,0.00,VWS V15.00,2014-07-25 22:35:00,
2014-07-25 17:40:00,90.1,69.6,30.00,SW,225,0.0,0.0,51,0.00,,,0.00,VWS V15.00,2014-07-25 22:40:00,
2014-07-25 17:45:00,90.3,70.3,30.00,SE,135,8.1,8.3,52,0.00,,,0.00,VWS V15.00,2014-07-25 22:45:00,
2014-07-25 17:50:00,90.1,70.2,30.00,SW,225,6.3,6.3,52,0.00,,,0.00,VWS V15.00,2014-07-25 22:50:00,
2014-07-25 17:55:00,89.8,69.8,30.00,SW,225,0.0,0.0,52,0.00,,,0.00,VWS V15.00,2014-07-25 22:55:00,
2014-07-25 18:00:00,89.4,70.6,30.00,South,180,7.2,7.2,54,0.00,,,0.00,VWS V15.00,2014-07-25 23:00:00,
2014-07-25 18:05:00,88.3,70.1,30.00,SW,225,3.1,3.1,55,0.00,,,0.00,VWS V15.00,2014-07-25 23:05:00,
2014-07-25 18:10:00,88.7,70.5,30.00,SE,135,5.4,5.8,55,0.00,,,0.00,VWS V15.00,2014-07-25 23:10:00,
2014-07-25 18:15:00,88.5,70.8,30.00,SE,135,4.9,6.3,56,0.00,,,0.00,VWS V15.00,2014-07-25 23:15:00,
2014-07-25 18:20:00,88.3,70.1,30.00,SW,225,0.0,5.8,55,0.00,,,0.00,VWS V15.00,2014-07-25 23:20:00,
2014-07-25 18:25:00,87.6,70.5,30.00,South,180,4.9,8.7,57,0.00,,,0.00,VWS V15.00,2014-07-25 23:25:00,
2014-07-25 18:30:00,87.6,70.5,29.97,SSW,202,4.9,4.9,57,0.00,,,0.00,VWS V15.00,2014-07-25 23:30:00,
2014-07-25 18:35:00,88.0,70.8,29.97,SSW,202,2.7,4.0,57,0.00,,,0.00,VWS V15.00,2014-07-25 23:35:00,
2014-07-25 18:40:00,87.1,70.0,29.97,South,180,6.3,7.6,57,0.00,,,0.00,VWS V15.00,2014-07-25 23:40:00,
2014-07-25 18:45:00,86.9,70.4,30.00,SW,225,5.4,9.6,58,0.00,,,0.00,VWS V15.00,2014-07-25 23:45:00,
2014-07-25 18:50:00,87.3,70.7,30.00,South,180,0.0,3.6,58,0.00,,,0.00,VWS V15.00,2014-07-25 23:50:00,
2014-07-25 18:55:00,86.9,69.8,30.00,South,180,2.2,5.4,57,0.00,,,0.00,VWS V15.00,2014-07-25 23:55:00,
2014-07-25 19:00:00,87.1,70.5,29.97,SW,225,8.3,8.3,58,0.00,,,0.00,VWS V15.00,2014-07-26 00:00:00,
2014-07-25 19:05:00,86.5,70.0,29.97,West,270,3.6,8.1,58,0.00,,,0.00,VWS V15.00,2014-07-26 00:05:00,
2014-07-25 19:10:00,86.4,70.8,29.97,SE,135,0.0,2.7,60,0.00,,,0.00,VWS V15.00,2014-07-26 00:10:00,
2014-07-25 19:15:00,86.2,70.7,29.97,SSE,158,8.3,8.3,60,0.00,,,0.00,VWS V15.00,2014-07-26 00:15:00,
2014-07-25 19:20:00,86.0,71.0,29.97,SW,225,0.0,7.2,61,0.00,,,0.00,VWS V15.00,2014-07-26 00:20:00,
2014-07-25 19:25:00,86.2,71.6,29.97,West,270,3.6,3.6,62,0.00,,,0.00,VWS V15.00,2014-07-26 00:25:00,
2014-07-25 19:30:00,85.8,71.3,29.97,West,270,5.4,5.4,62,0.00,,,0.00,VWS V15.00,2014-07-26 00:30:00,
2014-07-25 19:35:00,85.3,71.3,29.97,West,270,3.1,8.1,63,0.00,,,0.00,VWS V15.00,2014-07-26 00:35:00,
2014-07-25 19:40:00,85.5,71.4,29.97,West,270,4.0,4.0,63,0.00,,,0.00,VWS V15.00,2014-07-26 00:40:00,
2014-07-25 19:45:00,85.1,71.1,29.97,SW,225,0.0,0.0,63,0.00,,,0.00,VWS V15.00,2014-07-26 00:45:00,
2014-07-25 19:50:00,84.7,70.8,29.97,West,270,0.0,0.0,63,0.00,,,0.00,VWS V15.00,2014-07-26 00:50:00,
2014-07-25 19:55:00,84.4,70.9,29.97,SW,225,3.6,3.6,64,0.00,,,0.00,VWS V15.00,2014-07-26 00:55:00,
2014-07-25 20:00:00,83.7,71.1,29.97,SSE,158,0.0,3.6,66,0.00,,,0.00,VWS V15.00,2014-07-26 01:00:00,
2014-07-25 20:05:00,83.5,70.9,29.97,SSW,202,6.3,6.3,66,0.00,,,0.00,VWS V15.00,2014-07-26 01:05:00,
2014-07-25 20:10:00,83.3,71.2,29.97,West,270,4.0,4.0,67,0.00,,,0.00,VWS V15.00,2014-07-26 01:10:00,
2014-07-25 20:15:00,82.8,71.1,29.97,ESE,112,2.7,3.1,68,0.00,,,0.00,VWS V15.00,2014-07-26 01:15:00,
2014-07-25 20:20:00,82.4,71.2,29.97,SE,135,0.0,0.0,69,0.00,,,0.00,VWS V15.00,2014-07-26 01:20:00,
2014-07-25 20:25:00,81.9,71.1,29.97,SE,135,0.0,0.0,70,0.00,,,0.00,VWS V15.00,2014-07-26 01:25:00,
2014-07-25 20:30:00,81.3,71.4,29.97,SE,135,0.0,4.0,72,0.00,,,0.00,VWS V15.00,2014-07-26 01:30:00,
2014-07-25 20:35:00,81.0,71.5,29.97,SE,135,4.9,4.9,73,0.00,,,0.00,VWS V15.00,2014-07-26 01:35:00,
2014-07-25 20:40:00,80.8,71.3,29.97,South,180,0.0,3.6,73,0.00,,,0.00,VWS V15.00,2014-07-26 01:40:00,
2014-07-25 20:45:00,80.4,71.4,29.97,SE,135,0.0,2.7,74,0.00,,,0.00,VWS V15.00,2014-07-26 01:45:00,
2014-07-25 20:50:00,80.1,71.4,29.97,SE,135,3.6,3.6,75,0.00,,,0.00,VWS V15.00,2014-07-26 01:50:00,
2014-07-25 20:55:00,79.9,71.2,29.97,SW,225,2.7,3.6,75,0.00,,,0.00,VWS V15.00,2014-07-26 01:55:00,
2014-07-25 21:00:00,79.7,71.5,29.97,SW,225,3.6,3.6,76,0.00,,,0.00,VWS V15.00,2014-07-26 02:00:00,
2014-07-25 21:05:00,79.5,71.7,29.97,SE,135,0.0,2.7,77,0.00,,,0.00,VWS V15.00,2014-07-26 02:05:00,
2014-07-25 21:10:00,79.2,71.3,29.97,East,90,0.0,0.0,77,0.00,,,0.00,VWS V15.00,2014-07-26 02:10:00,
2014-07-25 21:15:00,78.8,71.4,29.97,South,180,0.0,0.0,78,0.00,,,0.00,VWS V15.00,2014-07-26 02:15:00,
2014-07-25 21:20:00,78.6,71.6,29.97,South,180,0.0,0.0,79,0.00,,,0.00,VWS V15.00,2014-07-26 02:20:00,
2014-07-25 21:25:00,78.4,71.8,29.97,SE,135,0.0,0.0,80,0.00,,,0.00,VWS V15.00,2014-07-26 02:25:00,
2014-07-25 21:29:00,78.1,71.8,29.97,SW,225,0.0,0.0,81,0.00,,,0.00,VWS V15.00,2014-07-26 02:29:00,
2014-07-25 21:34:00,77.7,71.4,29.97,SSE,158,2.7,2.7,81,0.00,,,0.00,VWS V15.00,2014-07-26 02:34:00,
2014-07-25 21:39:00,77.4,71.4,29.97,SW,225,0.0,0.0,82,0.00,,,0.00,VWS V15.00,2014-07-26 02:39:00,
2014-07-25 21:44:00,77.0,71.1,30.00,West,270,0.0,0.0,82,0.00,,,0.00,VWS V15.00,2014-07-26 02:44:00,
2014-07-25 21:49:00,76.8,71.3,30.00,West,270,0.0,0.0,83,0.00,,,0.00,VWS V15.00,2014-07-26 02:49:00,
2014-07-25 21:54:00,76.5,71.3,30.00,SSW,202,0.0,0.0,84,0.00,,,0.00,VWS V15.00,2014-07-26 02:54:00,
2014-07-25 21:59:00,76.3,71.4,30.00,South,180,3.1,3.1,85,0.00,,,0.00,VWS V15.00,2014-07-26 02:59:00,
2014-07-25 22:04:00,76.1,71.3,30.00,SW,225,0.0,0.0,85,0.00,,,0.00,VWS V15.00,2014-07-26 03:04:00,
2014-07-25 22:09:00,76.1,71.6,30.00,SW,225,3.6,3.6,86,0.00,,,0.00,VWS V15.00,2014-07-26 03:09:00,
2014-07-25 22:14:00,76.3,71.8,30.00,SW,225,0.0,0.0,86,0.00,,,0.00,VWS V15.00,2014-07-26 03:14:00,
2014-07-25 22:19:00,76.1,71.6,30.00,SSE,158,2.7,3.1,86,0.00,,,0.00,VWS V15.00,2014-07-26 03:19:00,
2014-07-25 22:24:00,76.5,72.0,30.00,East,90,0.0,0.0,86,0.00,,,0.00,VWS V15.00,2014-07-26 03:24:00,
2014-07-25 22:29:00,76.1,71.6,30.00,East,90,0.0,0.0,86,0.00,,,0.00,VWS V15.00,2014-07-26 03:29:00,
2014-07-25 22:34:00,76.1,71.6,30.00,SSE,158,0.0,0.0,86,0.00,,,0.00,VWS V15.00,2014-07-26 03:34:00,
2014-07-25 22:39:00,76.1,71.6,30.00,SE,135,0.0,0.0,86,0.00,,,0.00,VWS V15.00,2014-07-26 03:39:00,
2014-07-25 22:44:00,75.6,71.1,30.00,SW,225,0.0,4.0,86,0.00,,,0.00,VWS V15.00,2014-07-26 03:44:00,
2014-07-25 22:49:00,75.4,71.2,30.00,WSW,248,0.0,0.0,87,0.00,,,0.00,VWS V15.00,2014-07-26 03:49:00,
2014-07-25 22:54:00,75.4,71.6,30.00,WSW,248,0.0,0.0,88,0.00,,,0.00,VWS V15.00,2014-07-26 03:54:00,
2014-07-25 22:59:00,75.0,71.6,30.00,South,180,0.0,0.0,89,0.00,,,0.00,VWS V15.00,2014-07-26 03:59:00,
2014-07-25 23:01:00,75.0,71.6,30.00,South,180,0.0,0.0,89,0.00,,,0.00,VWS V15.00,2014-07-26 04:01:00,
2014-07-25 23:06:00,74.8,71.4,30.00,South,180,0.0,0.0,89,0.00,,,0.00,VWS V15.00,2014-07-26 04:06:00,
2014-07-25 23:11:00,74.8,71.7,30.00,SW,225,0.0,0.0,90,0.00,,,0.00,VWS V15.00,2014-07-26 04:11:00,
2014-07-25 23:16:00,74.8,71.7,30.00,South,180,0.0,0.0,90,0.00,,,0.00,VWS V15.00,2014-07-26 04:16:00,
2014-07-25 23:21:00,74.5,71.4,30.00,WSW,248,0.0,0.0,90,0.00,,,0.00,VWS V15.00,2014-07-26 04:21:00,
2014-07-25 23:26:00,74.7,71.9,30.00,SE,135,0.0,0.0,91,0.00,,,0.00,VWS V15.00,2014-07-26 04:26:00,
2014-07-25 23:31:00,74.5,71.7,30.00,SSE,158,0.0,0.0,91,0.00,,,0.00,VWS V15.00,2014-07-26 04:31:00,